Regional Weather Roundup
Issued by NWS

Home | Current Version | Previous Version | Graphics & Text | Print | Product List | Glossary On
Versions: 1 2 3 4 5 6 7 8 9 10 11 12 13 14 15 16 17 18 19 20 21 22 23 24 25 26 27 28 29 30 31 32 33 34 35 36 37 38 39 40 41 42 43 44 45 46 47 48 49 50
000
ASUS45 KSLC 272310
RWRUT

UTAH REGIONAL WEATHER ROUNDUP
NATIONAL WEATHER SERVICE SALT LAKE CITY UT
500 PM MDT WED MAY 27 2015

UTZ001>011-023>025-280000-

NORTHERN UTAH

CITY           SKY/WX    TMP DP  RH WIND       PRES   REMARKS
BRIGHAM CITY   PTSUNNY   66  44  45 S7        30.02F
HILL AFB       PTSUNNY   64  43  46 CALM      30.03F
LOGAN          MOSUNNY   65  46  50 SW5       30.00F
OGDEN          PTSUNNY   66  45  46 S5        30.02F
PROVO AIRPORT  PTSUNNY   66  46  48 SE14      30.03F
SALT LAKE CITY CLOUDY    69  49  48 NW9       30.01S
VERNAL         CLOUDY    62  43  49 SW6       30.05F
WENDOVER       CLOUDY    63  46  55 SW15      30.02R
HEBER CITY     CLOUDY    66  41  39 SW13      30.05S
WEST JORDAN    MOSUNNY   66  48  52 NW9       30.02F

$$

UTZ012>022-026-027-280000-

SOUTHERN/CENTRAL UTAH

CITY           SKY/WX    TMP DP  RH WIND       PRES   REMARKS
BLANDING       MOSUNNY   72  35  25 S12G18    30.13F
BRYCE CANYON   MOSUNNY   67  27  22 SW17G23   30.15F
CEDAR CITY     MOSUNNY   74  29  19 SW12      30.02F
DELTA          CLOUDY    57  46  68 NW6       30.09R
HANKSVILLE     PTSUNNY   73  36  25 CALM      29.98F
MILFORD        CLOUDY    58  47  66 N29G38    30.05R
MOAB/CYNLANDS  PTSUNNY   77  35  21 MISG      29.95F
PRICE          CLOUDY    56  48  74 NE12      30.08F
ST GEORGE      CLOUDY    88  30  12 NW10G16   29.89F
KANAB          MOSUNNY   79  27  14 S17G26    30.03F

$$

REGIONAL REPORTS     COLORADO/ARIZONA

CITY           SKY/WX    TMP DP  RH WIND       PRES   REMARKS
CRAIG, CO      CLOUDY    65  41  41 VRB5      30.10F
GRAND JUNCTION PTSUNNY   72  42  34 S10       30.00F
RIFLE          PTSUNNY   67  44  43 SE12      30.04F
MONTROSE       CLOUDY    72  36  26 S18       30.11R
CORTEZ         SUNNY     74  33  22 SW12      30.08F
PAGE, AZ       SUNNY     83  35  18 NE8       29.95F
GRAND CANYON   SUNNY     72  22  15 SW9G18    30.13F
KINGMAN        MOSUNNY   86  26  11 W17G26    29.95F
FLAGSTAFF      PTSUNNY   63  28  26 SW14      30.18F

$$

REGIONAL REPORTS    NEVADA/IDAHO/WYOMING

CITY           SKY/WX    TMP DP  RH WIND       PRES   REMARKS
LAS VEGAS, NV  MOSUNNY   92  30  11 S10G16    29.79F
ELY            LGT RAIN  53  46  77 S7        30.16R
ELKO           MOSUNNY   72  41  32 W14       29.99F
POCATELLO, ID  TSTM      57  51  80 NE14      30.00R
BURLEY         CLOUDY    62  43  49 SW13      29.98S
EVANSTON, WY   MOSUNNY   60  37  42 W18G26    30.12S
ROCK SPRINGS   LGT RAIN  47  44  90 W17       30.15R
KEMMERER       PTSUNNY   57  36  44 W17G24    30.12F

$$



USA.gov is the U.S. government's official web portal to all federal, state and local government web resources and services.